Location: Avebury
(53.1487°N, 106.9774°W)
Time: 13:00:22
(UTC+00:00)

Envisat - Pass Details

Date: 26 January 2022
Orbit: 764 x 765 km, 98.2° (Epoch: 22 May)

Event Time Altitude Azimuth Distance (km) Brightness Sun altitude
Rises 00:34:58 0° 216° (SW) 3,221 7.3 -8.4°
Reaches altitude 10° 00:38:16 10° 239° (WSW) 2,301 7.0 -8.8°
Maximum altitude 00:41:11 15° 275° (W) 1,964 6.2 -9.3°
Drops below altitude 10° 00:44:07 10° 310° (NW) 2,311 5.9 -9.7°
Sets 00:47:27 0° 333° (NNW) 3,243 6.4 -10.1°
